EN

Hourly Weather Wien

Today, 18 January, Monday

Time Temperature Precipitation Wind Pressure Humidity
00:00 -7°C° 0 mm 2 mps 747 mmHg 87%
01:00 -7°C° 0 mm 1 mps 748 mmHg 89%
02:00 -7°C° 0 mm 1 mps 747 mmHg 89%
03:00 -7°C° 0 mm 1 mps 747 mmHg 89%
04:00 -7°C° 0 mm 1 mps 747 mmHg 89%
05:00 -7°C° 0 mm 1 mps 747 mmHg 90%
06:00 -7°C° 0 mm 1 mps 747 mmHg 90%
07:00 -7°C° 0 mm 1 mps 747 mmHg 89%
08:00 -6°C° 0.1 mm 1 mps 747 mmHg 88%
09:00 -4°C° 0.1 mm 1 mps 747 mmHg 86%
10:00 -3°C° 0.1 mm 1 mps 747 mmHg 85%
11:00 -2°C° 0.3 mm 1 mps 747 mmHg 87%
12:00 -2°C° 0.3 mm 1 mps 747 mmHg 88%
13:00 -1°C° 0.3 mm 1 mps 747 mmHg 90%
14:00 -1°C° 0.2 mm 1 mps 747 mmHg 92%
15:00 0°C° 0.2 mm 1 mps 747 mmHg 94%
16:00 -2°C° 0.2 mm 2 mps 747 mmHg 96%
17:00 -2°C° 0.2 mm 2 mps 747 mmHg 95%
18:00 -1°C° 0.2 mm 3 mps 747 mmHg 94%
19:00 -1°C° 0.2 mm 3 mps 747 mmHg 92%
20:00 -2°C° 0 mm 4 mps 747 mmHg 90%
21:00 -2°C° 0 mm 4 mps 748 mmHg 88%
22:00 -2°C° 0 mm 4 mps 748 mmHg 85%
23:00 -2°C° 0 mm 4 mps 748 mmHg 84%

Tomorrow, 19 January, Tuesday

Time Temperature Precipitation Wind Pressure Humidity
00:00 -2°C° 0 mm 5 mps 748 mmHg 83%
01:00 -2°C° 0 mm 5 mps 748 mmHg 82%
02:00 -2°C° 0 mm 4 mps 747 mmHg 82%
03:00 -2°C° 0 mm 4 mps 747 mmHg 82%
04:00 -2°C° 0 mm 4 mps 747 mmHg 82%
05:00 -2°C° 0 mm 4 mps 747 mmHg 83%
06:00 -2°C° 0 mm 3 mps 747 mmHg 84%
07:00 -2°C° 0 mm 3 mps 746 mmHg 85%
08:00 -1°C° 0 mm 3 mps 746 mmHg 83%
09:00 -1°C° 0 mm 2 mps 746 mmHg 80%
10:00 +1°C° 0 mm 2 mps 746 mmHg 78%
11:00 +1°C° 0 mm 2 mps 745 mmHg 79%
12:00 +2°C° 0 mm 2 mps 745 mmHg 80%
13:00 +2°C° 0 mm 2 mps 744 mmHg 80%
14:00 +2°C° 0 mm 2 mps 743 mmHg 83%
15:00 +1°C° 0 mm 2 mps 743 mmHg 85%
16:00 +1°C° 0 mm 2 mps 742 mmHg 88%
17:00 +1°C° 0.3 mm 2 mps 742 mmHg 90%
18:00 -1°C° 0.3 mm 2 mps 742 mmHg 93%
19:00 -1°C° 0.3 mm 2 mps 742 mmHg 95%
20:00 0°C° 0.3 mm 3 mps 742 mmHg 94%
21:00 +1°C° 0.3 mm 3 mps 742 mmHg 93%
22:00 0°C° 0.3 mm 4 mps 742 mmHg 91%
23:00 +1°C° 0 mm 4 mps 742 mmHg 91%

Day after tomorrow, 20 January, Wednesday

Time Temperature Precipitation Wind Pressure Humidity
00:00 +1°C° 0 mm 4 mps 742 mmHg 90%
01:00 +1°C° 0 mm 4 mps 742 mmHg 89%
02:00 +2°C° 0 mm 3 mps 742 mmHg 89%
03:00 +2°C° 0 mm 2 mps 741 mmHg 88%
04:00 +2°C° 0 mm 2 mps 741 mmHg 88%
05:00 +2°C° 0 mm 2 mps 741 mmHg 86%
06:00 +1°C° 0 mm 2 mps 741 mmHg 85%
07:00 +1°C° 0 mm 2 mps 741 mmHg 84%
08:00 +3°C° 0 mm 1 mps 741 mmHg 84%
09:00 +3°C° 0 mm 1 mps 741 mmHg 83%
10:00 +4°C° 0 mm 1 mps 741 mmHg 82%
11:00 +3°C° 0 mm 2 mps 740 mmHg 82%
12:00 +3°C° 0 mm 2 mps 740 mmHg 82%
13:00 +4°C° 0 mm 2 mps 740 mmHg 82%
14:00 +3°C° 0 mm 2 mps 739 mmHg 83%
15:00 +2°C° 0 mm 2 mps 739 mmHg 84%
16:00 +3°C° 0 mm 1 mps 738 mmHg 86%
17:00 +2°C° 0 mm 1 mps 739 mmHg 87%
18:00 +2°C° 0 mm 1 mps 739 mmHg 88%
19:00 +1°C° 0 mm 1 mps 739 mmHg 89%
20:00 +1°C° 0 mm 1 mps 739 mmHg 90%
21:00 0°C° 0 mm 1 mps 738 mmHg 92%
22:00 0°C° 0 mm 1 mps 738 mmHg 93%
23:00 0°C° 0 mm 1 mps 738 mmHg 94%

21 January, Thursday

Time Temperature Precipitation Wind Pressure Humidity
00:00 0°C° 0 mm 1 mps 737 mmHg 95%
01:00 -2°C° 0 mm 2 mps 737 mmHg 96%
02:00 0°C° 0 mm 1 mps 737 mmHg 95%
03:00 0°C° 0 mm 1 mps 736 mmHg 95%
04:00 0°C° 0 mm 1 mps 735 mmHg 94%
05:00 0°C° 0 mm 1 mps 735 mmHg 93%
06:00 0°C° 0 mm 1 mps 735 mmHg 93%
07:00 0°C° 0 mm 1 mps 735 mmHg 92%
08:00 +1°C° 0 mm 1 mps 735 mmHg 90%
09:00 +1°C° 0 mm 1 mps 735 mmHg 88%
10:00 +2°C° 0 mm 1 mps 735 mmHg 86%
11:00 +2°C° 0 mm 1 mps 735 mmHg 84%
12:00 +3°C° 0 mm 1 mps 735 mmHg 83%
13:00 +4°C° 0 mm 1 mps 735 mmHg 81%
14:00 +4°C° 0 mm 1 mps 735 mmHg 83%
15:00 +3°C° 0 mm 1 mps 735 mmHg 85%
16:00 +2°C° 0 mm 0 mps 735 mmHg 87%
17:00 +2°C° 0 mm 1 mps 735 mmHg 88%
18:00 +2°C° 0 mm 1 mps 735 mmHg 88%
19:00 +2°C° 0 mm 1 mps 735 mmHg 89%
20:00 +2°C° 0 mm 1 mps 734 mmHg 89%
21:00 +2°C° 0 mm 1 mps 734 mmHg 90%
22:00 +2°C° 0 mm 1 mps 733 mmHg 91%
23:00 +2°C° 0 mm 1 mps 733 mmHg 91%

22 January, Friday

Time Temperature Precipitation Wind Pressure Humidity
00:00 +1°C° 0 mm 2 mps 732 mmHg 91%
01:00 +1°C° 0 mm 2 mps 732 mmHg 92%
02:00 +2°C° 0 mm 2 mps 731 mmHg 91%
03:00 +1°C° 0 mm 3 mps 730 mmHg 91%
04:00 +1°C° 0 mm 3 mps 730 mmHg 90%
05:00 +2°C° 0 mm 2 mps 730 mmHg 90%
06:00 +2°C° 0 mm 2 mps 729 mmHg 90%
07:00 +2°C° 0 mm 2 mps 729 mmHg 89%
08:00 +4°C° 0 mm 1 mps 730 mmHg 89%
09:00 +4°C° 0 mm 1 mps 730 mmHg 88%
10:00 +4°C° 0 mm 1 mps 730 mmHg 88%
11:00 +5°C° 0 mm 1 mps 730 mmHg 87%
12:00 +5°C° 0 mm 1 mps 730 mmHg 87%
13:00 +5°C° 0 mm 1 mps 730 mmHg 86%
14:00 +5°C° 0.4 mm 1 mps 730 mmHg 89%
15:00 +3°C° 0.4 mm 2 mps 729 mmHg 91%
16:00 +2°C° 0.4 mm 3 mps 729 mmHg 94%
17:00 +2°C° 1.1 mm 3 mps 730 mmHg 94%
18:00 +1°C° 1.1 mm 4 mps 730 mmHg 95%
19:00 +1°C° 1.1 mm 5 mps 731 mmHg 95%
20:00 +1°C° 0.3 mm 5 mps 731 mmHg 93%
21:00 +1°C° 0.3 mm 5 mps 732 mmHg 90%
22:00 +1°C° 0.3 mm 5 mps 733 mmHg 88%
23:00 +1°C° 0 mm 4 mps 733 mmHg 86%

23 January, Saturday

Time Temperature Precipitation Wind Pressure Humidity
00:00 0°C° 0 mm 4 mps 733 mmHg 85%
01:00 +1°C° 0 mm 3 mps 734 mmHg 83%
02:00 +1°C° 0 mm 3 mps 734 mmHg 84%
03:00 +1°C° 0 mm 3 mps 734 mmHg 85%
04:00 +1°C° 0 mm 3 mps 734 mmHg 85%
05:00 +1°C° 0 mm 3 mps 734 mmHg 86%
06:00 0°C° 0 mm 3 mps 734 mmHg 86%
07:00 0°C° 0 mm 3 mps 734 mmHg 87%
08:00 +1°C° 0 mm 3 mps 735 mmHg 85%
09:00 +1°C° 0 mm 3 mps 735 mmHg 82%
10:00 +2°C° 0 mm 3 mps 735 mmHg 80%
11:00 +4°C° 0 mm 2 mps 735 mmHg 77%
12:00 +4°C° 0 mm 2 mps 734 mmHg 75%
13:00 +6°C° 0 mm 1 mps 734 mmHg 72%
14:00 +5°C° 0 mm 1 mps 734 mmHg 75%
15:00 +5°C° 0 mm 1 mps 734 mmHg 78%
16:00 +4°C° 0 mm 1 mps 733 mmHg 81%
17:00 +3°C° 0 mm 2 mps 733 mmHg 82%
18:00 +1°C° 0 mm 3 mps 732 mmHg 83%
19:00 0°C° 0 mm 4 mps 732 mmHg 84%
20:00 0°C° 0 mm 4 mps 732 mmHg 83%
21:00 0°C° 0 mm 5 mps 732 mmHg 82%
22:00 0°C° 0 mm 5 mps 731 mmHg 80%
23:00 0°C° 0 mm 4 mps 731 mmHg 83%
Show more

We Need Your Consent

Meteoprog and our Service Providers may store and access personal data such as cookies, device identifiers or other similar technologies on your device and process such data to personalise content and ads, as well as provide social media features and to analyse the traffic.

  • Store and/or access information on your device

    Cookies, device identifiers or other information can be stored or accessed on your device for the purposes indicated above.

  • Personalised ads and content, ad and content measurement, audience insights, and products development

    Ads and content can be personalised based on a profile. More data can be added to better personalise ads and content. Ad and content performance can be measured. Insights about the audience who saw the ads and content can be derived. Such data can be used to develop or improve user’s experience, systems and software.

By clicking ‘I Agree’ you will allow the use of indicated cookies, device identifiers, web beacons or other similar technologies. Your settings can be changed in the browser on your device.

For certain purposes, legitimate interests may be relied on, rather than consent. You can read more about this in our Privacy and Cookie Policy.